Location: R�o Tuerlos
(40.6704°N, 4.4622°W)
Time: 07:38:13
(UTC+00:00)

STARLINK-1012 - Pass Details

Date: 07 June 2020
Orbit: 549 x 551 km, 53.0° (Epoch: 15 July)

Event Time Altitude Azimuth Distance (km) Brightness Sun altitude
Exits shadow 02:41:10 36° 175° (S) 880 4.2 -18.2°
Maximum altitude 02:42:14 44° 135° (SE) 758 4.2 -18.1°
Drops below altitude 10° 02:46:11 10° 62° (ENE) 1,821 7.2 -17.7°
Sets 02:48:29 0° 56° (NE) 2,718 8.5 -17.4°
